[[{"header":{"parameterUnit":"m.s-1","parameterCategory":1,"la1":30.2991,"la2":30.254,"lo1":-89.0895,"lo2":-89.0444,"dy":0.0017,"dx":0.0017,"nx":28,"ny":28,"refTime":"2025-07-09T09:00:00:Z","depth":0,"parameterNumber":2,"parameterNumberName":"U-component_of_WINDS"},"data":[0,0,0,0,0,0,0,0,0,0,0,0,0,0,0,0,0,0,0,0,0,0,0,0,0,0,0,0,0,0,0,0,0,0,0,0,0,0,0,0,0,0,0,0,0,0,0,0,0,0,0,0,0,0,0,0,0,0,4.8781,4.8784,0,4.9141,4.9145,4.9149,4.9214,4.9211,4.9208,4.9205,4.9574,4.9587,4.9599,0,0,0,0,0,0,0,0,0,0,0,0,0,4.8148,4.8159,4.878,4.8785,4.8789,4.914,4.9145,4.915,4.9214,4.9211,4.9207,4.9204,4.957,4.9585,4.96,0,0,0,0,0,0,0,0,0,0,0,0,0,4.8457,4.8163,4.8779,4.8864,4.8875,4.9139,4.9145,4.9151,4.9215,4.9211,4.9206,4.9202,4.9565,4.9584,4.9602,4.9808,0,0,4.966,4.9668,0,0,0,0,0,0,0,0,4.8439,4.848,4.8847,4.8858,4.8871,4.9128,4.9058,4.9371,4.9216,4.9086,4.9205,4.92,4.9429,4.9459,4.9537,4.9825,4.9841,4.9662,4.9673,4.9681,4.9687,0,0,0,0,0,0,0,4.8418,4.8465,4.8923,4.8852,4.8867,4.8883,4.8922,4.9117,4.9278,4.9097,4.9102,4.9144,4.9435,4.9518,4.9546,4.9847,4.9661,4.9678,4.969,4.9697,5.0321,5.0326,0,0,0,0,0,0,4.8381,4.8447,4.8911,4.8934,4.864,4.8898,4.8942,4.905,4.9276,4.9306,4.9148,4.9146,4.9488,4.9524,4.9559,4.9814,4.9681,4.9699,4.971,5.0316,5.0322,5.0328,0,0,0,0,0,0,4.8368,4.8422,4.8897,4.8692,4.8754,4.8914,4.9035,4.9059,4.9142,4.9315,4.9344,4.9203,4.9486,4.9532,4.9745,4.9827,4.9707,4.9725,5.031,5.0318,5.0325,5.0325,0,0,0,0,0,0,4.8349,4.8417,4.8497,4.8693,4.8764,4.9077,4.904,4.907,4.9175,4.9176,4.9374,4.9403,4.9486,4.9717,4.9764,4.9851,4.9739,5.0303,5.0314,5.0323,5.0318,5.0332,5.0343,0,0,0,0,0,4.8326,4.8483,4.85,4.8556,4.8867,4.9082,4.9123,4.9215,4.9181,4.9263,4.9373,4.9396,4.9811,4.9738,4.9792,4.9886,5.0298,5.0311,5.0322,5.0313,5.0329,5.0343,0,0,0,0,0,0,4.8292,4.851,4.8532,4.8757,4.89,4.9092,4.9198,4.923,4.9386,4.9381,4.9489,4.9534,4.974,4.9835,4.975,5.0096,5.0052,5.0075,5.0027,5.0044,5.0056,5.0028,4.9755,0,0,0,0,0,4.8311,4.8467,4.8649,4.8829,4.89,4.9036,4.9133,4.9192,4.9345,4.9407,4.9533,4.968,4.9844,4.995,5.011,5.0333,5.0376,5.0424,5.0436,5.0446,5.0464,5.0587,5.061,5.0367,5.0367,5.0367,0,0,4.8351,4.8489,4.8581,4.8826,4.8944,4.9102,4.9087,4.9256,4.9375,4.9432,4.9641,4.9738,4.9911,5.0129,5.0231,5.0214,5.0541,5.0461,5.0467,5.0481,5.0602,5.0625,5.0645,5.0375,5.0373,5.0372,0,0,4.8505,4.8625,4.8788,4.8907,4.9085,4.9175,4.9214,4.9402,4.9469,4.968,4.9726,4.9869,5.0148,5.0269,5.0366,5.0565,5.0591,5.0614,5.0679,5.0798,5.0817,5.0834,5.0903,5.0927,5.0632,5.0632,5.0632,0,4.8532,4.8772,4.8868,4.9035,4.9141,4.92,4.9365,4.9476,4.9698,4.9769,4.9747,5.0098,5.0219,5.0465,5.0513,5.0591,5.0638,5.0591,5.0806,5.0825,5.0843,5.091,5.0936,5.0633,5.0633,5.0633,5.0633,0,4.8796,4.8962,4.9073,4.9284,4.9403,4.9568,4.9688,4.9797,4.9846,4.9937,5.015,5.0297,5.0487,5.055,5.06,5.0804,5.0787,5.0784,5.0742,5.0866,5.093,5.0957,5.0635,5.0635,5.0634,5.0634,0,0,4.8938,4.92,4.9239,4.9335,4.9536,4.9667,4.9834,5.002,5.011,5.0261,5.0404,5.0639,5.0637,5.0748,5.0811,5.0916,5.1062,5.0901,5.0906,5.0924,5.1294,5.1293,5.1321,5.1081,5.1086,5.1091,5.1279,0,4.9115,4.9415,4.9505,4.9757,4.9911,4.9969,5.0115,5.0254,5.0344,5.0488,5.0588,5.0752,5.0738,5.0805,5.0911,5.1021,5.1137,5.1009,5.1214,5.122,5.1167,5.1356,5.1356,5.1526,5.1305,5.1309,5.1312,0,4.9361,4.9515,4.9781,4.9961,5.0029,5.0159,5.0335,5.0472,5.0631,5.0689,5.0812,5.0867,5.1043,5.0992,5.1236,5.1147,5.1236,5.1303,5.1312,5.1333,5.1272,5.138,5.1583,5.1608,5.1353,5.135,5.1347,0,4.9435,4.971,4.9904,4.9985,5.0201,5.029,5.0384,5.0538,5.0643,5.0798,5.0867,5.104,5.1135,5.1267,5.1367,5.1321,5.1602,5.1559,5.1655,5.1652,5.171,5.1705,5.1928,5.177,5.177,5.1769,5.1769,0,4.9622,4.9782,4.994,5.006,5.0241,5.0343,5.052,5.0617,5.0753,5.0893,5.0954,5.1084,5.1208,5.1354,5.1433,5.1622,5.1665,5.1717,5.1735,5.171,5.1703,5.1769,5.1759,5.1776,5.1775,5.1773,5.1772,0,4.9735,4.9848,5.0063,5.0249,5.03,5.0425,5.0584,5.0702,5.0794,5.0969,5.1016,5.1161,5.1336,5.1449,5.1672,5.1725,5.1931,5.1948,5.1877,5.1886,5.1974,5.1963,5.2246,5.2288,5.2103,5.2105,5.2106,0,4.9846,4.9971,5.0169,5.0266,5.036,5.0517,5.0624,5.073,5.0839,5.1028,5.1123,5.1302,5.145,5.1726,5.1851,5.2022,5.2042,5.2129,5.2068,5.2038,5.2041,5.2032,5.2044,5.2138,5.214,5.2141,5.2142,0,5.003,5.0079,5.0231,5.0403,5.0528,5.0669,5.0809,5.0885,5.1015,5.1135,5.1313,5.1428,5.1655,5.1831,5.2013,5.211,5.2148,5.2161,5.2191,5.2166,5.2119,5.2144,5.1903,5.2153,5.2152,5.2151,5.2151,5.215,5.0146,5.0258,5.0415,5.0581,5.0698,5.0827,5.0946,5.1053,5.1204,5.1396,5.145,5.1636,5.1791,5.2038,5.2139,5.2286,5.2275,5.232,5.2331,5.234,5.234,5.2097,5.2319,5.2319,5.2319,5.2319,5.2319,0,5.0331,5.0435,5.0587,5.078,5.0911,5.0935,5.1091,5.1199,5.1362,5.1503,5.1647,5.1851,5.2022,5.2161,5.2336,5.2427,5.2449,5.247,5.2463,5.2485,5.234,5.2295,5.2449,5.2449,5.2449,5.2449,5.2449,5.2449,5.0443,5.0634,5.0702,5.0951,5.1054,5.1235,5.1322,5.1442,5.1554,5.178,5.1921,5.201,5.215,5.2336,5.2494,5.253,5.2591,5.2608,5.2648,5.251,5.2495,5.2481,5.2439,5.2621,5.2621,5.278,5.2781,5.2783]},{"header":{"parameterUnit":"m.s-1","parameterCategory":1,"la1":30.2991,"la2":30.254,"lo1":-89.0895,"lo2":-89.0444,"dy":0.0017,"dx":0.0017,"nx":28,"ny":28,"refTime":"2025-07-09T09:00:00:Z","depth":0,"parameterNumber":3,"parameterNumberName":"V-component_of_WINDS"},"data":[0,0,0,0,0,0,0,0,0,0,0,0,0,0,0,0,0,0,0,0,0,0,0,0,0,0,0,0,0,0,0,0,0,0,0,0,0,0,0,0,0,0,0,0,0,0,0,0,0,0,0,0,0,0,0,0,0,0,1.8639,1.8638,0,1.8589,1.8588,1.8588,1.857,1.857,1.857,1.857,1.8517,1.8515,1.8513,0,0,0,0,0,0,0,0,0,0,0,0,0,1.8714,1.8713,1.8639,1.8638,1.8638,1.8589,1.8588,1.8588,1.857,1.857,1.857,1.8571,1.8517,1.8515,1.8513,0,0,0,0,0,0,0,0,0,0,0,0,0,1.8675,1.8713,1.8639,1.8623,1.8621,1.8589,1.8588,1.8587,1.857,1.857,1.857,1.8571,1.8518,1.8515,1.8513,1.8492,0,0,1.8506,1.8505,0,0,0,0,0,0,0,0,1.8677,1.8672,1.8626,1.8624,1.8622,1.8586,1.8595,1.8555,1.857,1.8589,1.857,1.8571,1.8539,1.8535,1.8525,1.849,1.8488,1.8505,1.8504,1.8503,1.8502,0,0,0,0,0,0,0,1.868,1.8674,1.8619,1.8625,1.8623,1.8617,1.8611,1.8587,1.8563,1.8588,1.8586,1.8581,1.8538,1.8527,1.8524,1.8487,1.8505,1.8503,1.8502,1.8501,1.8428,1.8427,0,0,0,0,0,0,1.8686,1.8676,1.8621,1.8618,1.8651,1.8615,1.8609,1.8597,1.8563,1.8559,1.858,1.858,1.8531,1.8526,1.8522,1.8492,1.8503,1.8501,1.8499,1.8428,1.8428,1.8427,0,0,0,0,0,0,1.8687,1.8681,1.8623,1.8647,1.8639,1.8614,1.86,1.8596,1.8585,1.8558,1.8553,1.8574,1.8531,1.8525,1.8499,1.849,1.85,1.8497,1.8429,1.8428,1.8427,1.8436,0,0,0,0,0,0,1.869,1.8682,1.8675,1.8647,1.8638,1.8603,1.86,1.8595,1.8581,1.858,1.8551,1.8546,1.8531,1.8503,1.8497,1.8487,1.8495,1.8429,1.8429,1.8428,1.8436,1.8436,1.8435,0,0,0,0,0,1.8692,1.868,1.8675,1.8668,1.8629,1.8602,1.8597,1.858,1.8581,1.8573,1.8555,1.8547,1.8493,1.85,1.8493,1.8483,1.843,1.8429,1.8428,1.8437,1.8436,1.8435,0,0,0,0,0,0,1.8708,1.8676,1.867,1.8648,1.8628,1.8599,1.8589,1.8581,1.8559,1.8559,1.8539,1.8532,1.8507,1.8493,1.8502,1.8459,1.8461,1.8458,1.847,1.8469,1.8468,1.8471,1.8493,0,0,0,0,0,1.8709,1.8691,1.8664,1.8647,1.8637,1.8614,1.8602,1.8591,1.8569,1.856,1.8541,1.8519,1.8496,1.8482,1.846,1.8434,1.8426,1.8423,1.8423,1.8422,1.842,1.8402,1.8399,1.8424,1.8424,1.8424,0,0,1.871,1.869,1.8681,1.8649,1.8632,1.8612,1.8608,1.8588,1.8572,1.8557,1.8531,1.8515,1.8489,1.8462,1.8449,1.8449,1.8411,1.8421,1.8421,1.8419,1.84,1.8398,1.8396,1.8423,1.8423,1.8423,0,0,1.8702,1.8687,1.867,1.8652,1.8627,1.8611,1.8607,1.8579,1.8568,1.8541,1.8529,1.8509,1.8472,1.8453,1.8438,1.8419,1.841,1.8413,1.8409,1.8391,1.8389,1.8387,1.8378,1.8375,1.8411,1.8411,1.8411,0,1.8707,1.8678,1.8662,1.8641,1.8626,1.8612,1.8593,1.8576,1.8545,1.8534,1.8534,1.8485,1.8466,1.8433,1.8428,1.8418,1.841,1.8416,1.8391,1.8389,1.8387,1.8378,1.8375,1.8411,1.8411,1.8411,1.8411,0,1.8684,1.8664,1.8653,1.8622,1.8606,1.8587,1.8565,1.855,1.8539,1.8523,1.8494,1.8471,1.8443,1.8434,1.8424,1.8398,1.8398,1.8396,1.8396,1.8385,1.8376,1.8373,1.8411,1.8411,1.8411,1.8411,0,0,1.8687,1.8645,1.8641,1.8625,1.8594,1.8577,1.8555,1.8528,1.8514,1.8492,1.8471,1.8438,1.8434,1.8417,1.8405,1.8389,1.8372,1.8387,1.8386,1.8383,1.8338,1.834,1.8336,1.8366,1.8365,1.8365,1.8339,0,1.8673,1.8635,1.8618,1.8586,1.8566,1.855,1.853,1.8508,1.8491,1.847,1.8451,1.8427,1.8425,1.8414,1.8398,1.8378,1.8362,1.8379,1.8344,1.8343,1.835,1.8332,1.8334,1.8311,1.8336,1.8336,1.8335,0,1.8654,1.8631,1.8597,1.8565,1.8556,1.8539,1.851,1.8491,1.8463,1.8452,1.8432,1.8419,1.8393,1.8395,1.8357,1.8369,1.8353,1.834,1.8339,1.8334,1.8338,1.8324,1.8304,1.83,1.833,1.833,1.8331,0,1.8656,1.8616,1.859,1.8578,1.8541,1.8529,1.8512,1.8486,1.8469,1.8443,1.8431,1.8403,1.8387,1.8364,1.8342,1.8347,1.8305,1.8307,1.8292,1.8293,1.8284,1.8284,1.8259,1.8277,1.8277,1.8277,1.8277,0,1.8642,1.8622,1.859,1.8574,1.855,1.8529,1.8504,1.8486,1.8462,1.844,1.8425,1.8404,1.8378,1.8353,1.8336,1.8305,1.8299,1.8287,1.8282,1.8287,1.8288,1.8276,1.8276,1.8276,1.8276,1.8276,1.8277,0,1.8641,1.8619,1.8589,1.8556,1.8547,1.853,1.85,1.8482,1.8464,1.8437,1.8429,1.84,1.8369,1.8346,1.8307,1.8295,1.8261,1.8257,1.827,1.8268,1.8254,1.8254,1.8218,1.821,1.8235,1.8235,1.8235,0,1.8633,1.8617,1.8581,1.8565,1.8549,1.8525,1.8507,1.8484,1.8466,1.8432,1.8417,1.8386,1.8359,1.8311,1.8285,1.8254,1.8248,1.8237,1.8243,1.8247,1.8245,1.8245,1.8242,1.8236,1.8236,1.8236,1.8236,0,1.8621,1.861,1.8586,1.8557,1.8536,1.8512,1.8487,1.8475,1.8447,1.8427,1.8395,1.8375,1.8333,1.8301,1.8267,1.8248,1.8236,1.8234,1.8228,1.8233,1.824,1.8233,1.8266,1.8235,1.8235,1.8235,1.8235,1.8235,1.8615,1.8598,1.8569,1.8541,1.852,1.8496,1.8477,1.8455,1.8429,1.8394,1.8382,1.8349,1.8318,1.827,1.825,1.8222,1.8222,1.8215,1.8213,1.8211,1.8209,1.8246,1.8216,1.8216,1.8216,1.8216,1.8216,0,1.86,1.858,1.8554,1.8519,1.8496,1.8488,1.8459,1.844,1.8411,1.8384,1.8357,1.8319,1.8287,1.8257,1.8223,1.8206,1.8199,1.8197,1.8197,1.8192,1.8214,1.8221,1.8203,1.8203,1.8203,1.8203,1.8203,1.8203,1.8589,1.8559,1.8545,1.8502,1.8482,1.845,1.8434,1.841,1.8388,1.8346,1.8319,1.83,1.827,1.8233,1.8202,1.8194,1.818,1.8179,1.817,1.819,1.8191,1.8193,1.8199,1.8177,1.8177,1.815,1.815,1.815]}]]